[[{"header":{"parameterUnit":"m.s-1","parameterCategory":1,"la1":30.2991,"la2":30.254,"lo1":-89.0895,"lo2":-89.0444,"dx":0.0017,"dy":0.0017,"nx":28,"ny":28,"refTime":"2022-12-16T15:00:00:Z","depth":0,"parameterNumber":2,"parameterNumberName":"U-component_of_WINDS"},"data":[0,0,0,0,0,0,0,0,0,0,0,0,0,0,0,0,0,0,0,0,0,0,0,0,0,0,0,0,0,0,0,0,0,0,0,0,0,0,0,0,0,0,0,0,0,0,0,0,0,0,0,0,0,0,0,0,0,0,1.6813,1.6813,0,1.6833,1.6833,1.6833,1.6797,1.6796,1.6795,1.6793,1.6812,1.6814,1.6816,0,0,0,0,0,0,0,0,0,0,0,0,0,1.6744,1.6745,1.6813,1.6813,1.6813,1.6833,1.6833,1.6833,1.6797,1.6796,1.6794,1.6793,1.6812,1.6814,1.6816,0,0,0,0,0,0,0,0,0,0,0,0,0,1.677,1.6746,1.6813,1.6798,1.6796,1.6832,1.6833,1.6833,1.6797,1.6796,1.6794,1.6792,1.6811,1.6814,1.6816,1.6867,0,0,1.6824,1.6825,0,0,0,0,0,0,0,0,1.6768,1.6772,1.68,1.6799,1.6798,1.681,1.6815,1.6845,1.6798,1.6797,1.6793,1.6791,1.6813,1.6815,1.6823,1.6868,1.6869,1.6824,1.6825,1.6826,1.6827,0,0,0,0,0,0,0,1.6766,1.6771,1.682,1.68,1.6799,1.679,1.6792,1.6821,1.6815,1.6797,1.6794,1.6797,1.6812,1.6821,1.6823,1.6869,1.6824,1.6826,1.6827,1.6828,1.6959,1.6961,0,0,0,0,0,0,1.6767,1.677,1.682,1.6821,1.6778,1.6793,1.6795,1.6808,1.6815,1.6814,1.6799,1.6796,1.6817,1.682,1.6824,1.6885,1.6826,1.6829,1.683,1.6957,1.6959,1.6962,0,0,0,0,0,0,1.6765,1.6771,1.6819,1.6795,1.68,1.6796,1.6811,1.6809,1.6818,1.6816,1.6815,1.6809,1.6816,1.682,1.6857,1.6885,1.683,1.6832,1.6955,1.6958,1.696,1.7007,0,0,0,0,0,0,1.6763,1.6771,1.679,1.6796,1.6802,1.6852,1.6813,1.6811,1.6822,1.6818,1.6825,1.6824,1.6815,1.6854,1.686,1.6887,1.6834,1.6952,1.6956,1.6959,1.7003,1.7011,1.7018,0,0,0,0,0,1.6761,1.6802,1.6791,1.6798,1.6826,1.6854,1.6857,1.6846,1.6825,1.6844,1.6843,1.6824,1.6881,1.6858,1.6864,1.6893,1.695,1.6955,1.6959,1.6999,1.7009,1.7018,0,0,0,0,0,0,1.6799,1.6802,1.6791,1.6834,1.6844,1.6848,1.6871,1.6857,1.6873,1.6868,1.6854,1.6856,1.6896,1.6898,1.6872,1.6944,1.6912,1.6918,1.694,1.695,1.6957,1.6956,1.6836,0,0,0,0,0,1.6812,1.6835,1.6837,1.6875,1.6881,1.6876,1.6887,1.6879,1.6888,1.6892,1.6893,1.6903,1.6923,1.6937,1.6955,1.7003,1.7005,1.7026,1.7034,1.704,1.7045,1.7072,1.7082,1.6976,1.6976,1.6976,0,0,1.684,1.6845,1.686,1.6883,1.6889,1.6914,1.6879,1.6906,1.6923,1.6895,1.6931,1.6933,1.6943,1.6986,1.7005,1.6989,1.7075,1.7046,1.7051,1.7053,1.7078,1.7088,1.7097,1.6979,1.6979,1.6978,0,0,1.6903,1.6909,1.6942,1.695,1.6961,1.6958,1.6966,1.6972,1.6972,1.7008,1.6988,1.7009,1.7044,1.7052,1.7061,1.713,1.7113,1.7137,1.7176,1.7202,1.7211,1.7218,1.7243,1.7252,1.7142,1.7142,1.7142,0,1.6936,1.6971,1.6961,1.6989,1.7,1.6978,1.7012,1.702,1.7036,1.7044,1.7027,1.7071,1.7076,1.7121,1.7139,1.7146,1.7156,1.7135,1.7211,1.7218,1.7224,1.7248,1.7257,1.7145,1.7145,1.7144,1.7144,0,1.7012,1.7037,1.7063,1.708,1.7094,1.7125,1.7119,1.7135,1.7126,1.7125,1.7162,1.7167,1.7187,1.7198,1.7188,1.7242,1.7232,1.7213,1.7181,1.7237,1.7259,1.7268,1.7149,1.7148,1.7147,1.7146,0,0,1.7096,1.711,1.7119,1.7128,1.7139,1.7158,1.7189,1.721,1.7224,1.7236,1.7262,1.7293,1.7276,1.7286,1.7278,1.7301,1.7357,1.7279,1.7279,1.7293,1.7417,1.7431,1.7442,1.7346,1.7348,1.7349,1.7416,0,1.7159,1.7212,1.7205,1.7256,1.728,1.726,1.7287,1.7297,1.7297,1.7318,1.7318,1.734,1.7316,1.7322,1.7344,1.7345,1.7381,1.734,1.7369,1.7371,1.7367,1.7453,1.7467,1.753,1.7425,1.7426,1.7427,0,1.7239,1.7256,1.731,1.7319,1.7329,1.7353,1.7372,1.7392,1.7404,1.7402,1.7415,1.7403,1.7435,1.7403,1.7446,1.7419,1.7431,1.7433,1.7436,1.7437,1.7402,1.7456,1.755,1.7559,1.7441,1.7439,1.7438,0,1.7295,1.7332,1.7369,1.7377,1.7389,1.7407,1.7413,1.7423,1.7436,1.7453,1.7462,1.7482,1.7492,1.7509,1.7503,1.748,1.7547,1.7515,1.7547,1.7547,1.7561,1.756,1.7657,1.757,1.757,1.7569,1.7569,0,1.7365,1.7399,1.7395,1.7418,1.7455,1.7447,1.7485,1.7488,1.7498,1.7521,1.7506,1.7528,1.7519,1.7541,1.7537,1.7574,1.7579,1.7579,1.7577,1.758,1.758,1.7586,1.7582,1.7572,1.7571,1.7571,1.757,0,1.7434,1.7433,1.7472,1.7482,1.7485,1.7512,1.752,1.7542,1.7542,1.7572,1.7578,1.7578,1.7604,1.76,1.7628,1.7625,1.7671,1.7664,1.7667,1.7665,1.7697,1.7694,1.7802,1.7815,1.772,1.7721,1.7721,0,1.7479,1.7504,1.7517,1.7532,1.754,1.7564,1.7578,1.7572,1.7587,1.7604,1.7624,1.7648,1.7667,1.7708,1.7711,1.7732,1.7726,1.7762,1.7729,1.7731,1.7726,1.7724,1.7727,1.7768,1.7769,1.777,1.7771,0,1.7558,1.7557,1.7578,1.7599,1.7617,1.7633,1.7648,1.7662,1.7657,1.7675,1.7701,1.7716,1.7745,1.777,1.7791,1.7797,1.7783,1.7782,1.779,1.7793,1.7793,1.7793,1.7684,1.7779,1.7778,1.7777,1.7777,1.7777,1.7616,1.7638,1.7651,1.7676,1.7687,1.7702,1.7723,1.7727,1.7749,1.7773,1.7768,1.7798,1.781,1.7837,1.7846,1.7869,1.7856,1.7868,1.7871,1.7874,1.7878,1.7791,1.7873,1.7873,1.7873,1.7872,1.7872,0,1.7694,1.7702,1.7725,1.7747,1.7767,1.7754,1.7771,1.7788,1.7814,1.7828,1.7848,1.7878,1.7903,1.7908,1.7931,1.7949,1.7944,1.7955,1.7953,1.7955,1.7888,1.7879,1.7959,1.7959,1.7959,1.7959,1.7959,1.7959,1.7737,1.7775,1.7775,1.7819,1.7827,1.7856,1.7867,1.7881,1.7892,1.7927,1.7948,1.7952,1.7962,1.7986,1.8008,1.8009,1.8018,1.8033,1.8031,1.7969,1.796,1.7951,1.7942,1.8035,1.8035,1.8096,1.8097,1.8097]},{"header":{"parameterUnit":"m.s-1","parameterCategory":1,"la1":30.2991,"la2":30.254,"lo1":-89.0895,"lo2":-89.0444,"dx":0.0017,"dy":0.0017,"nx":28,"ny":28,"refTime":"2022-12-16T15:00:00:Z","depth":0,"parameterNumber":3,"parameterNumberName":"V-component_of_WINDS"},"data":[0,0,0,0,0,0,0,0,0,0,0,0,0,0,0,0,0,0,0,0,0,0,0,0,0,0,0,0,0,0,0,0,0,0,0,0,0,0,0,0,0,0,0,0,0,0,0,0,0,0,0,0,0,0,0,0,0,0,-4.2155,-4.2156,0,-4.2323,-4.2325,-4.2327,-4.2294,-4.2291,-4.2288,-4.2285,-4.2456,-4.2463,-4.2471,0,0,0,0,0,0,0,0,0,0,0,0,0,-4.1802,-4.1808,-4.2154,-4.2156,-4.2159,-4.2323,-4.2325,-4.2328,-4.2294,-4.2291,-4.2287,-4.2283,-4.2454,-4.2463,-4.2471,0,0,0,0,0,0,0,0,0,0,0,0,0,-4.1961,-4.181,-4.2154,-4.2162,-4.2164,-4.2323,-4.2326,-4.2328,-4.2295,-4.229,-4.2286,-4.2282,-4.2451,-4.2462,-4.2473,-4.2634,0,0,-4.2507,-4.2512,0,0,0,0,0,0,0,0,-4.1952,-4.1974,-4.2159,-4.2162,-4.2164,-4.2283,-4.2264,-4.2431,-4.2296,-4.2245,-4.2285,-4.2279,-4.2402,-4.2417,-4.2459,-4.2642,-4.2649,-4.2508,-4.2514,-4.2519,-4.2522,0,0,0,0,0,0,0,-4.1941,-4.1967,-4.2221,-4.2161,-4.2165,-4.2156,-4.2174,-4.2295,-4.2347,-4.2249,-4.2247,-4.2268,-4.2403,-4.2448,-4.2463,-4.2652,-4.2507,-4.2517,-4.2524,-4.2529,-4.2975,-4.298,0,0,0,0,0,0,-4.1928,-4.1958,-4.2216,-4.2226,-4.2045,-4.2167,-4.2186,-4.2249,-4.2346,-4.2356,-4.2272,-4.2266,-4.2431,-4.245,-4.2468,-4.2664,-4.2519,-4.253,-4.2536,-4.297,-4.2976,-4.2982,0,0,0,0,0,0,-4.192,-4.1951,-4.2209,-4.2092,-4.2124,-4.2178,-4.2249,-4.2255,-4.23,-4.2363,-4.2372,-4.2308,-4.2428,-4.2453,-4.2593,-4.2669,-4.2535,-4.2545,-4.2964,-4.2972,-4.2979,-4.3055,0,0,0,0,0,0,-4.191,-4.1948,-4.201,-4.2093,-4.213,-4.2331,-4.2254,-4.2262,-4.232,-4.2314,-4.24,-4.241,-4.2427,-4.2577,-4.2604,-4.2682,-4.2553,-4.2957,-4.2968,-4.2977,-4.3046,-4.3064,-4.308,0,0,0,0,0,-4.1898,-4.2025,-4.2014,-4.2045,-4.2209,-4.2336,-4.2357,-4.2374,-4.2326,-4.2389,-4.2429,-4.2407,-4.2656,-4.2591,-4.2622,-4.2704,-4.2953,-4.2965,-4.2976,-4.3038,-4.3061,-4.308,0,0,0,0,0,0,-4.1949,-4.2036,-4.2024,-4.2182,-4.2252,-4.233,-4.2409,-4.2398,-4.2482,-4.2473,-4.2491,-4.251,-4.2653,-4.2693,-4.2619,-4.2865,-4.2798,-4.2816,-4.2834,-4.2856,-4.2873,-4.2861,-4.2563,0,0,0,0,0,-4.1978,-4.2075,-4.2145,-4.2277,-4.2313,-4.2355,-4.2411,-4.2419,-4.2492,-4.2521,-4.2571,-4.2643,-4.2737,-4.2799,-4.2889,-4.3051,-4.307,-4.3123,-4.314,-4.3154,-4.317,-4.3259,-4.3284,-4.302,-4.302,-4.302,0,0,-4.2041,-4.21,-4.2159,-4.2289,-4.2344,-4.2443,-4.238,-4.2488,-4.2561,-4.2537,-4.2673,-4.2712,-4.2793,-4.2945,-4.3015,-4.2983,-4.3247,-4.3169,-4.3179,-4.3188,-4.3274,-4.3298,-4.3321,-4.3028,-4.3027,-4.3026,0,0,-4.2205,-4.2259,-4.2376,-4.2432,-4.2516,-4.2544,-4.2572,-4.2652,-4.2678,-4.2814,-4.2798,-4.2886,-4.3048,-4.3106,-4.3157,-4.3344,-4.3327,-4.3373,-4.3462,-4.3549,-4.357,-4.3588,-4.3655,-4.3679,-4.3388,-4.3388,-4.3388,0,-4.2271,-4.242,-4.2437,-4.2546,-4.2604,-4.2587,-4.2705,-4.2759,-4.2868,-4.2908,-4.2871,-4.3074,-4.3127,-4.3293,-4.3339,-4.338,-4.3413,-4.3363,-4.3566,-4.3584,-4.3602,-4.3666,-4.3691,-4.3393,-4.3393,-4.3392,-4.3392,0,-4.2498,-4.2602,-4.2686,-4.2792,-4.2859,-4.2972,-4.3006,-4.3072,-4.3073,-4.3105,-4.3244,-4.3307,-4.341,-4.345,-4.3452,-4.3617,-4.3594,-4.3561,-4.3493,-4.3632,-4.3692,-4.3717,-4.3401,-4.3399,-4.3397,-4.3396,0,0,-4.2699,-4.2814,-4.2845,-4.2893,-4.2985,-4.3065,-4.3177,-4.3279,-4.3335,-4.3411,-4.3506,-4.3644,-4.3614,-4.3671,-4.368,-4.3757,-4.3901,-4.3714,-4.3716,-4.3747,-4.4086,-4.4111,-4.4139,-4.389,-4.3895,-4.3899,-4.4079,0,-4.2872,-4.3071,-4.3089,-4.3267,-4.3363,-4.3349,-4.3447,-4.3514,-4.3546,-4.3632,-4.3667,-4.3765,-4.3718,-4.3753,-4.3827,-4.3868,-4.3969,-4.3855,-4.3978,-4.3982,-4.3959,-4.4171,-4.4197,-4.4365,-4.4103,-4.4107,-4.411,0,-4.31,-4.3184,-4.3372,-4.3451,-4.3492,-4.358,-4.3674,-4.3756,-4.3832,-4.385,-4.3915,-4.3914,-4.4029,-4.3957,-4.4116,-4.4038,-4.409,-4.4117,-4.4124,-4.4136,-4.4055,-4.4189,-4.4419,-4.4444,-4.4147,-4.4144,-4.4142,0,-4.3229,-4.3388,-4.3521,-4.3563,-4.3658,-4.372,-4.3763,-4.3834,-4.3894,-4.3976,-4.4015,-4.411,-4.4162,-4.4235,-4.4259,-4.4204,-4.4418,-4.4348,-4.4436,-4.4436,-4.4482,-4.4479,-4.4724,-4.4515,-4.4514,-4.4514,-4.4513,0,-4.342,-4.3536,-4.358,-4.3662,-4.3792,-4.3811,-4.3939,-4.3978,-4.4041,-4.413,-4.4123,-4.4207,-4.4234,-4.4322,-4.4342,-4.4471,-4.4494,-4.4512,-4.4516,-4.4513,-4.4511,-4.4547,-4.4537,-4.4521,-4.4519,-4.4518,-4.4517,0,-4.3586,-4.362,-4.3765,-4.3843,-4.3865,-4.3957,-4.4024,-4.4103,-4.4134,-4.4247,-4.4275,-4.4323,-4.4427,-4.4459,-4.4583,-4.4596,-4.4748,-4.4741,-4.4723,-4.4723,-4.481,-4.4802,-4.5087,-4.5126,-4.4891,-4.4893,-4.4895,0,-4.3706,-4.3795,-4.3883,-4.3943,-4.3988,-4.4084,-4.4145,-4.4167,-4.4232,-4.4325,-4.4392,-4.4495,-4.4579,-4.4745,-4.4791,-4.4886,-4.4882,-4.4976,-4.4896,-4.4891,-4.4884,-4.4879,-4.4888,-4.4991,-4.4993,-4.4995,-4.4997,0,-4.3916,-4.3929,-4.4017,-4.4113,-4.4186,-4.4262,-4.4335,-4.4384,-4.4417,-4.449,-4.4596,-4.4661,-4.4789,-4.4891,-4.4988,-4.5031,-4.502,-4.5021,-4.5047,-4.5045,-4.5031,-4.5041,-4.4764,-4.5015,-4.5013,-4.5012,-4.5011,-4.501,-4.4063,-4.4141,-4.4216,-4.4315,-4.4373,-4.4441,-4.452,-4.456,-4.465,-4.4756,-4.4764,-4.4879,-4.4952,-4.5081,-4.513,-4.522,-4.5193,-4.523,-4.5239,-4.5248,-4.5256,-4.5016,-4.5237,-4.5237,-4.5237,-4.5236,-4.5236,0,-4.4273,-4.432,-4.4411,-4.4514,-4.4592,-4.4575,-4.4655,-4.4722,-4.4824,-4.4893,-4.4975,-4.5098,-4.5197,-4.5251,-4.535,-4.5412,-4.5409,-4.5437,-4.5433,-4.5443,-4.5274,-4.5242,-4.5437,-4.5437,-4.5437,-4.5437,-4.5437,-4.5437,-4.4392,-4.4524,-4.4545,-4.4706,-4.4752,-4.4865,-4.4912,-4.4976,-4.5031,-4.5168,-4.5251,-4.5286,-4.5349,-4.5453,-4.5543,-4.5556,-4.5593,-4.5624,-4.5634,-4.5476,-4.5455,-4.5435,-4.5405,-4.5632,-4.5632,-4.5796,-4.5798,-4.5799]}]]